Current weather by "City, St" or "zip code"  
 

Current Conditions: Fort Riley - Marshall AAF, KS

Fair


50.0 F

Last Updated on Oct 31 2020, 4:56 am CDT
Humidity: 58%
Wind Speed: S 10.4 mph
Barometer 29.99 in
Dewpoint: 35.8 F
Visibility: 9.00 mi
Precip: --
Heat Index: NA
Wind Chill: 46 F
Current conditions at:

Fort Riley - Marshall AAF, KS (KFRI)

Lat: 39.05586 Lon: 96.76166

Local Radar Image active severe weather and emergency alerts image image weather storm and storm spotter reports image weather observation monitoring service image
Local
Radar
Active
Alerts
Storm Reports Obs
Monitoring

Sign-up For Email & Text Message Weather Alert Notification Services



Advertise Here

Observation History for Fort Riley - Marshall AAF, KS


Time Wind
(mph)
Vis
(mi)
Weather Precip (in) Temperature (F) Relative
Humidity
Wind
Chill
(F)
Heat
Index
(F)
Pressure
Air Dwpt altimeter
(in)
sea level
(mb)
Rmks
4:56 am CDT S 10.4 9.00 Fair -- 50.0 35.8 58% 46 NA 29.99 1015.1
3:56 am CDT S 10.4 4.00 Fair with Haze -- 50.0 36.7 60% 46 NA 30.01 1015.8
2:56 am CDT S 11.5 3.00 Fair with Haze -- 51.0 36.7 58% 47 NA 30.03 1016.5
1:56 am CDT S 9.2 4.00 Fair with Haze -- 53.0 36.9 55% 50 NA 30.05 1017.2
12:56 am CDT SW 10.4 2.00 Fair with Haze -- 53.0 37.9 57% 50 NA 30.06 1017.7
11:56 pm CDT SW 6.9 2.00 Fair with Haze -- 51.0 38.8 64% 48 NA 30.07 1018.1
10:56 pm CDT SW 8.1 2.00 Fair with Haze -- 53.0 39.2 60% 50 NA 30.08 1018.5
9:56 pm CDT S 9.2 5.00 Fair with Haze -- 56.0 39.7 54% 54 NA 30.07 1018.2
8:56 pm CDT S 10.4 10.00 Fair -- 58.0 39.7 50% 56 NA 30.08 1018.6
7:56 pm CDT S 9.2 10.00 Fair -- 61.0 41.2 48% 60 NA 30.08 1018.6
6:56 pm CDT S 4.6 10.00 Fair -- 64.0 40.6 43% NA NA 30.07 1018.2
5:56 pm CDT N 0.0 10.00 Fair -- 70.0 39.6 33% NA NA 30.07 1018.1
4:56 pm CDT N 0.0 10.00 Fair -- 72.0 38.8 30% NA NA 30.08 1018.5
3:56 pm CDT SW 4.6 10.00 Fair -- 72.0 39.4 31% NA NA 30.09 1018.9
2:56 pm CDT SW 3.5 10.00 Fair -- 70.0 39.7 33% NA NA 30.11 1019.7
1:56 pm CDT W 6.9 10.00 Fair -- 67.0 38.8 36% NA NA 30.14 1020.8
12:56 pm CDT W 6.9 10.00 Fair -- 62.0 39.0 42% 62 NA 30.17 1021.9
11:56 am CDT W 5.8 10.00 Fair -- 58.0 37.8 47% 57 NA 30.19 1022.6
10:56 am CDT W 6.9 10.00 Fair -- 53.0 37.4 55% 51 NA 30.20 1023.0
9:56 am CDT SW 10.4 10.00 Fair -- 47.0 36.0 64% 42 NA 30.20 1023.2
7:56 am CDT S 3.5 10.00 Fair -- 38.0 30.4 75% NA NA 30.17 1022.1
6:56 am CDT S 5.8 10.00 Fair -- 39.0 31.3 73% 35 NA 30.15 1021.4
5:56 am CDT SW 5.8 10.00 Fair -- 37.0 28.6 72% 32 NA 30.14 1021.0

Regional Weather Observation


Manhattan, Manhattan Municipal Airport, KS (KMHK)

Fair
52.0 F

Concordia, Blosser Municipal Airport, KS (KCNK)

Fair
52.0 F

Salina, Salina Municipal Airport, KS (KSLN)

Fair
51.0 F

Emporia, Emporia Municipal Airport, KS (KEMP)

Fair
43.0 F

Topeka, Philip Billard Municipal Airport, KS (KTOP)

Fair
42.0 F

Newton, Newton City/County Airport, KS (KEWK)

Fair
49.0 F